Location: Voyageurs National Park
(48.5020°N, 92.9292°W)
Time: 03:48:32
(UTC-05:00)

Amateur Radio Satellites - All Passes

Search period start: 18 April 2015 03:18
Search period end: 19 April 2015 03:18
Location: Voyageurs National Park, 48.5020°N, 92.9292°W

Satellite Date Start Highest point End Downlink Frequencies (MHz)
Time Altitude Azimuth
CUSAT 1 18 Apr 03:31:31 03:34:34 14° 55° (NE) 03:38:17 437.405
AIST 1 18 Apr 03:36:52 03:40:12 21° 293° (WNW) 03:43:28
MOZHAYETS 4 18 Apr 03:44:08 03:47:29 20° 62° (ENE) 03:50:56
BEESAT 18 Apr 03:45:05 03:45:54 10° 277° (W) 03:46:25 436.000
Gurwin Techsat 1B 18 Apr 03:53:43 03:59:04 77° 103° (ESE) 04:04:23 435.225
STARS 18 Apr 03:58:19 04:02:27 40° 262° (W) 04:06:38 437.465
Oscar 19 18 Apr 03:59:55 04:04:31 32° 296° (WNW) 04:09:03 437.125/150
ITAMSAT 1 18 Apr 04:14:52 04:20:00 64° 288° (WNW) 04:25:07 435.822/435.867
KKS-1 18 Apr 04:20:36 04:23:42 18° 270° (W) 04:26:41 437.445
AO-7 18 Apr 04:31:55 04:39:13 34° 94° (E) 04:46:39 29.400- 29.500
Cosmos 2504 18 Apr 04:32:15 04:36:22 14° 288° (WNW) 04:39:53 435.465 / 435.565
AUBIESAT-1 18 Apr 04:32:16 04:35:20 18° 53° (NE) 04:38:34 437.475
GONETS M04 18 Apr 04:32:46 04:41:31 59° 73° (ENE) 04:50:14
HORYU 2 18 Apr 04:48:44 04:53:13 60° 101° (E) 04:57:40 437.375
JAS-2 18 Apr 04:55:30 05:02:13 47° 95° (E) 05:08:10 435.910
DANDE 18 Apr 04:55:33 05:01:11 38° 70° (ENE) 05:08:16 436.750
BEESAT 2 18 Apr 04:58:18 05:01:14 20° 114° (ESE) 05:04:19 435.950
CUBESAT XI-V 18 Apr 04:58:46 04:59:59 11° 56° (NE) 05:01:25 437.345
BEESAT 3 18 Apr 05:07:23 05:10:51 27° 117° (ESE) 05:14:24 437.485
CUSAT 1 18 Apr 05:12:09 05:18:28 60° 74° (ENE) 05:26:16 437.405
M-CUBED/EXP-1 PRIME 18 Apr 05:14:46 05:19:11 40° 62° (ENE) 05:23:44 437.505
MOZHAYETS 4 18 Apr 05:19:46 05:24:21 58° 260° (W) 05:28:58
Cosmos 2499 18 Apr 05:30:29 05:37:08 27° 58° (ENE) 05:43:34 435.465 / 435.565
Gurwin Techsat 1B 18 Apr 05:34:44 05:38:31 20° 302° (WNW) 05:42:10 435.225
ITAMSAT 1 18 Apr 05:56:37 05:58:37 12° 308° (NW) 06:00:24 435.822/435.867
PRISM 18 Apr 05:57:03 06:00:21 24° 64° (ENE) 06:03:44 437.425
CUTE-I 18 Apr 06:03:28 06:04:42 11° 83° (E) 06:06:16 437.470
AUBIESAT-1 18 Apr 06:04:49 06:09:33 85° 251° (WSW) 06:14:26 437.475
Cubesat XI-IV 18 Apr 06:09:37 06:11:51 13° 84° (E) 06:14:23 437.490
AO-7 18 Apr 06:24:25 06:32:38 66° 295° (WNW) 06:40:49 29.400- 29.500
HORYU 2 18 Apr 06:26:16 06:29:30 19° 299° (WNW) 06:32:36 437.375
STRAND 1 18 Apr 06:27:27 06:32:09 39° 66° (ENE) 06:36:55 437.568
GONETS M04 18 Apr 06:30:08 06:38:04 37° 275° (W) 06:45:50
CUBESAT XI-V 18 Apr 06:32:03 06:36:41 71° 74° (ENE) 06:41:19 437.345
BEESAT 2 18 Apr 06:34:57 06:39:02 57° 313° (NW) 06:43:10 435.950
DANDE 18 Apr 06:38:35 06:44:36 50° 264° (W) 06:52:03 436.750
JAS-2 18 Apr 06:40:43 06:47:13 39° 298° (WNW) 06:52:56 435.910
AIST 2 18 Apr 06:42:48 06:47:02 67° 125° (SE) 06:51:20 435.215
BEESAT 3 18 Apr 06:44:49 06:48:45 42° 316° (NW) 06:52:43 437.485
M-CUBED/EXP-1 PRIME 18 Apr 06:49:53 06:54:07 31° 261° (W) 06:58:24 437.505
CUSAT 1 18 Apr 06:55:18 07:01:07 33° 268° (W) 07:07:49 437.405
Cosmos 2499 18 Apr 07:23:10 07:31:25 78° 264° (W) 07:38:58 435.465 / 435.565
PRISM 18 Apr 07:31:42 07:35:40 39° 262° (W) 07:39:37 437.425
CUTE-I 18 Apr 07:40:32 07:45:52 74° 103° (ESE) 07:51:11 437.470
AUBIESAT-1 18 Apr 07:43:02 07:45:08 12° 270° (W) 07:47:01 437.475
Cubesat XI-IV 18 Apr 07:47:33 07:52:55 84° 104° (ESE) 07:58:15 437.490
STRAND 1 18 Apr 08:06:51 08:11:27 32° 265° (W) 08:16:01 437.568
O/OREOS (USA 219) 18 Apr 08:07:32 08:09:15 12° 38° (NE) 08:11:06 437.305
CUBESAT XI-V 18 Apr 08:11:54 08:14:42 15° 273° (W) 08:17:20 437.345
BEESAT 2 18 Apr 08:15:34 08:18:02 15° 334° (NNW) 08:20:28 435.950
AO-7 18 Apr 08:18:22 08:24:05 20° 317° (NW) 08:29:34 29.400- 29.500
AIST 2 18 Apr 08:22:30 08:26:02 24° 326° (NW) 08:29:33 435.215
BEESAT 3 18 Apr 08:25:58 08:27:51 13° 338° (NNW) 08:29:41 437.485
JAS-2 18 Apr 08:29:33 08:30:19 10° 321° (NW) 08:30:46 435.910
AAUSAT CUBESAT 2 18 Apr 09:05:57 09:07:10 11° 85° (E) 09:08:35 437.432
BRITE-PL 18 Apr 09:06:26 09:10:54 41° 97° (E) 09:15:43 437.365/2234.400
DOVE 4 18 Apr 09:16:50 09:20:50 26° 93° (E) 09:25:05 437.250
Cosmos 2499 18 Apr 09:18:16 09:23:12 17° 285° (WNW) 09:27:34 435.465 / 435.565
ANTELSAT 18 Apr 09:20:48 09:23:03 14° 58° (ENE) 09:25:29 437.575/2403.000
CUTE-I 18 Apr 09:21:36 09:25:28 20° 302° (WNW) 09:29:12 437.470
CINEMA 3 18 Apr 09:26:42 09:29:52 18° 88° (E) 09:33:16 145.822/145.860
HO-68 18 Apr 09:27:07 09:33:47 40° 96° (E) 09:40:28 435.675
Cubesat XI-IV 18 Apr 09:28:51 09:32:26 18° 303° (WNW) 09:35:51 437.490
GOMX 1 18 Apr 09:36:58 09:41:41 53° 99° (E) 09:46:44 467.674
O/OREOS (USA 219) 18 Apr 09:45:13 09:49:43 62° 61° (ENE) 09:54:10 437.305
COMPASS 1 18 Apr 09:49:41 09:53:35 35° 96° (E) 09:57:29 437.405
CANX-2 18 Apr 09:55:53 10:00:12 65° 100° (E) 10:04:28 2200.000
QB50P2 18 Apr 09:57:23 09:59:44 15° 60° (ENE) 10:02:14 145.880/145.840
SEEDS 18 Apr 10:01:45 10:05:59 57° 100° (E) 10:10:10 437.485
FUNcube-1 18 Apr 10:02:53 10:05:05 14° 86° (E) 10:07:30 145.935
CUTE 1.7 + AOD 2 18 Apr 10:06:20 10:10:40 76° 102° (ESE) 10:14:57 437.475
Cosmos 2491 18 Apr 10:07:25 10:15:31 39° 66° (ENE) 10:23:42 435.465 / 435.565
TIGRISAT 18 Apr 10:13:05 10:17:10 37° 67° (ENE) 10:21:24 435.000
UNISAT 6 18 Apr 10:13:26 10:17:34 38° 68° (ENE) 10:21:50 437.425
POPSAT HIP 1 18 Apr 10:19:43 10:23:00 23° 64° (ENE) 10:26:22 437.405
NANOSAT C BR1 18 Apr 10:20:23 10:23:41 23° 64° (ENE) 10:27:04 145.865
CUBEBUG 2 18 Apr 10:21:42 10:25:52 31° 94° (E) 10:30:07 437.445
UKube-1 18 Apr 10:22:52 10:24:20 12° 86° (E) 10:26:01 .
ZACube-1 18 Apr 10:23:49 10:27:20 22° 91° (E) 10:30:58 437.345
PCSat 18 Apr 10:37:16 10:42:25 48° 117° (ESE) 10:47:39 145.827
AAUSAT CUBESAT 2 18 Apr 10:39:13 10:43:28 82° 285° (WNW) 10:47:40 437.432
Oscar 11 18 Apr 10:42:37 10:46:55 53° 100° (E) 10:51:11 145.826/435.025
POLYITAN 1 18 Apr 10:44:44 10:48:39 39° 69° (ENE) 10:52:39 437.675
BRITE-PL 18 Apr 10:45:18 10:49:20 29° 293° (WNW) 10:53:36 437.365/2234.400
DOVE 4 18 Apr 10:54:10 10:58:47 47° 290° (WNW) 11:03:39 437.250
ANTELSAT 18 Apr 10:54:44 10:59:12 88° 256° (WSW) 11:03:50 437.575/2403.000
DUCHIFAT 1 18 Apr 10:56:05 11:00:07 49° 71° (ENE) 11:04:13 145.980
50 SAT 18 Apr 10:56:34 10:58:36 14° 88° (E) 11:00:47 437.505
DX 1 18 Apr 11:02:08 11:05:58 30° 95° (E) 11:09:51 434.975-435.025
CINEMA 3 18 Apr 11:02:45 11:07:33 68° 287° (WNW) 11:12:29 145.822/145.860
UWE-3 18 Apr 11:05:22 11:10:01 65° 101° (E) 11:14:42 435.000/436.395/437.385
QB50P1 18 Apr 11:07:58 11:12:07 67° 73° (ENE) 11:16:20 145.935-145.965
DELFI C3 18 Apr 11:08:32 11:12:38 77° 102° (ESE) 11:16:41 145.870
HO-68 18 Apr 11:14:48 11:21:43 50° 296° (WNW) 11:28:32 435.675
GOMX 1 18 Apr 11:15:46 11:19:35 24° 296° (WNW) 11:23:31 467.674
YUBILEINY 18 Apr 11:21:35 11:29:21 38° 85° (E) 11:37:18 435.215
COMPASS 1 18 Apr 11:25:35 11:29:10 26° 294° (WNW) 11:32:39 437.405
O/OREOS (USA 219) 18 Apr 11:25:43 11:28:41 17° 259° (W) 11:31:29 437.305
HUMSAT D 18 Apr 11:26:12 11:30:21 43° 97° (E) 11:34:31 437.325/437.525
BUGSAT 1 18 Apr 11:28:30 11:32:32 78° 75° (ENE) 11:36:35 437.445
QB50P2 18 Apr 11:30:58 11:35:10 70° 257° (WSW) 11:39:25 145.880/145.840
CANX-2 18 Apr 11:32:56 11:35:42 16° 299° (WNW) 11:38:19 2200.000
BEESAT 2 18 Apr 11:35:57 11:37:52 13° 22° (NNE) 11:39:52 435.950
VELOX 1 18 Apr 11:36:04 11:40:03 32° 96° (E) 11:44:03 145.980
FUNcube-1 18 Apr 11:37:27 11:42:03 79° 284° (WNW) 11:46:39 145.935
SEEDS 18 Apr 11:38:28 11:41:25 18° 298° (WNW) 11:44:14 437.485
CUTE 1.7 + AOD 2 18 Apr 11:43:40 11:46:05 14° 300° (WNW) 11:48:20 437.475
BEESAT 3 18 Apr 11:45:04 11:47:29 15° 26° (NNE) 11:49:56 437.485
AIST 2 18 Apr 11:46:01 11:46:40 10° 13° (NNE) 11:47:22 435.215
TIGRISAT 18 Apr 11:50:11 11:54:02 27° 267° (W) 11:57:55 435.000
AISAT 18 Apr 11:50:21 11:54:37 46° 99° (E) 11:58:55 437.250
UNISAT 6 18 Apr 11:50:40 11:54:29 27° 267° (W) 11:58:21 437.425
POPSAT HIP 1 18 Apr 11:54:42 11:58:42 41° 262° (W) 12:02:43 437.405
NANOSAT C BR1 18 Apr 11:55:22 11:59:21 40° 262° (W) 12:03:21 145.865
UKube-1 18 Apr 11:56:48 12:01:09 82° 287° (WNW) 12:05:29 .
CUBEBUG 2 18 Apr 11:58:17 12:02:36 37° 292° (WNW) 12:06:57 437.445
ZACube-1 18 Apr 11:59:33 12:03:59 48° 289° (WNW) 12:08:24 437.345
ESTCUBE 1 18 Apr 12:00:27 12:04:30 32° 95° (E) 12:08:33 437.505/2401.250
AIST 1 18 Apr 12:02:04 12:04:54 17° 65° (ENE) 12:07:50
Cosmos 2491 18 Apr 12:04:15 12:12:50 57° 269° (W) 12:21:22 435.465 / 435.565
Oscar 19 18 Apr 12:04:30 12:07:22 15° 56° (NE) 12:10:24 437.125/150
CUBEBUG 1 18 Apr 12:05:56 12:09:50 32° 96° (E) 12:13:47 437.445
AAUSAT CUBESAT 2 18 Apr 12:17:10 12:18:26 11° 302° (WNW) 12:19:31 437.432
Oscar 11 18 Apr 12:19:34 12:22:46 20° 297° (WNW) 12:25:52 145.826/435.025
PCSat 18 Apr 12:21:00 12:26:01 36° 317° (NW) 12:31:03 145.827
POLYITAN 1 18 Apr 12:21:21 12:24:45 23° 268° (W) 12:28:06 437.675
SPROUT 18 Apr 12:23:52 12:26:21 15° 88° (E) 12:28:58 437.525
TISAT 1 18 Apr 12:25:37 12:27:17 12° 87° (E) 12:29:10 437.305
50 SAT 18 Apr 12:29:52 12:33:56 64° 287° (WNW) 12:37:56 437.505
DUCHIFAT 1 18 Apr 12:33:18 12:36:17 18° 270° (W) 12:39:10 145.980
ANTELSAT 18 Apr 12:35:31 12:36:51 11° 276° (W) 12:37:55 437.575/2403.000
DX 1 18 Apr 12:38:21 12:42:14 32° 294° (WNW) 12:46:05 434.975-435.025
CINEMA 3 18 Apr 12:42:21 12:44:00 11° 304° (NW) 12:45:27 145.822/145.860
UWE-3 18 Apr 12:42:52 12:46:09 19° 298° (WNW) 12:49:20 435.000/436.395/437.385
DELFI C3 18 Apr 12:45:17 12:47:16 13° 300° (WNW) 12:49:05 145.870
QB50P1 18 Apr 12:46:17 12:48:32 14° 272° (W) 12:50:38 145.935-145.965
HUMSAT D 18 Apr 13:02:25 13:05:54 23° 296° (WNW) 13:09:18 437.325/437.525
HO-68 18 Apr 13:04:31 13:07:56 14° 318° (NW) 13:11:04 435.675
BUGSAT 1 18 Apr 13:07:28 13:08:39 11° 274° (W) 13:09:37 437.445
VELOX 1 18 Apr 13:12:41 13:16:36 31° 294° (WNW) 13:20:28 145.980
BEESAT 2 18 Apr 13:13:03 13:17:03 43° 44° (NE) 13:21:00 435.950
FUNcube-1 18 Apr 13:15:48 13:17:42 12° 303° (WNW) 13:19:25 145.935
YUBILEINY 18 Apr 13:17:13 13:25:55 58° 287° (WNW) 13:34:37 435.215
BEESAT 3 18 Apr 13:22:16 13:26:21 59° 47° (NE) 13:30:23 437.485
AIST 2 18 Apr 13:23:06 13:26:43 26° 36° (NE) 13:30:19 435.215
Cosmos 2504 18 Apr 13:26:43 13:33:12 25° 79° (E) 13:39:59 435.465 / 435.565
AISAT 18 Apr 13:27:28 13:31:00 23° 297° (WNW) 13:34:27 437.250
JAS-2 18 Apr 13:32:12 13:33:46 11° 41° (NE) 13:35:41 435.910
UKube-1 18 Apr 13:35:01 13:36:39 12° 303° (WNW) 13:38:07 .
SO-50 18 Apr 13:35:07 13:38:43 23° 114° (ESE) 13:42:31 436.795
ESTCUBE 1 18 Apr 13:37:22 13:41:21 31° 294° (WNW) 13:45:17 437.505/2401.250
AIST 1 18 Apr 13:38:47 13:42:57 52° 265° (W) 13:47:05
Gurwin Techsat 1B 18 Apr 13:39:57 13:44:23 28° 63° (ENE) 13:48:54 435.225
Oscar 19 18 Apr 13:40:53 13:46:02 85° 74° (ENE) 13:51:15 437.125/150
CUBEBUG 1 18 Apr 13:42:22 13:46:11 30° 294° (WNW) 13:49:56 437.445
AO-7 18 Apr 13:46:11 13:51:29 20° 42° (NE) 13:57:02 29.400- 29.500
ITAMSAT 1 18 Apr 13:57:37 14:02:30 44° 67° (ENE) 14:07:25 435.822/435.867
SPROUT 18 Apr 13:58:38 14:02:55 63° 287° (WNW) 14:07:11 437.525
TISAT 1 18 Apr 13:59:26 14:03:41 76° 286° (WNW) 14:07:55 437.305
BEESAT 18 Apr 13:59:32 14:03:04 21° 90° (E) 14:06:41 436.000
SWISSCUBE 18 Apr 14:00:30 14:04:12 23° 91° (E) 14:08:00 437.505
Cosmos 2491 18 Apr 14:04:34 14:07:53 12° 290° (WNW) 14:10:35 435.465 / 435.565
PCSat 18 Apr 14:08:20 14:11:06 14° 342° (NNW) 14:13:46 145.827
HORYU 2 18 Apr 14:17:00 14:19:00 13° 57° (ENE) 14:21:11 437.375
BEESAT 2 18 Apr 14:51:31 14:55:01 26° 243° (WSW) 14:58:25 435.950
ITUPSAT 1 18 Apr 15:00:19 15:05:07 72° 103° (ESE) 15:09:53 437.325
BEESAT 3 18 Apr 15:01:07 15:04:02 19° 246° (WSW) 15:06:49 437.485
AIST 2 18 Apr 15:01:24 15:05:36 57° 237° (WSW) 15:09:43 435.215
JAS-2 18 Apr 15:09:54 15:16:54 38° 61° (ENE) 15:23:53 435.910
SO-50 18 Apr 15:14:14 15:18:54 61° 314° (NW) 15:23:45 436.795
Cosmos 2504 18 Apr 15:16:47 15:25:40 87° 279° (W) 15:34:35 435.465 / 435.565
Gurwin Techsat 1B 18 Apr 15:19:00 15:24:09 49° 261° (W) 15:29:20 435.225
YUBILEINY 18 Apr 15:20:15 15:25:17 15° 314° (NW) 15:29:54 435.215
Oscar 19 18 Apr 15:23:17 15:26:12 14° 274° (W) 15:28:52 437.125/150
ISS 18 Apr 15:29:08 15:31:49 24° 142° (SE) 15:34:32 145.825
RS-15 18 Apr 15:32:52 15:42:25 39° 110° (ESE) 15:52:22 29.354- 29.394
AO-7 18 Apr 15:34:45 15:42:52 63° 64° (ENE) 15:51:03 29.400- 29.500
BEESAT 18 Apr 15:36:37 15:41:17 54° 290° (WNW) 15:45:55 436.000
ITAMSAT 1 18 Apr 15:37:39 15:42:11 29° 266° (W) 15:46:41 435.822/435.867
SWISSCUBE 18 Apr 15:37:46 15:42:23 49° 291° (WNW) 15:46:57 437.505
TISAT 1 18 Apr 15:37:56 15:38:48 10° 303° (WNW) 15:39:28 437.305
STARS 18 Apr 15:44:17 15:48:05 28° 94° (E) 15:51:57 437.465
GONETS M04 18 Apr 15:48:51 15:51:41 12° 70° (ENE) 15:55:09
HORYU 2 18 Apr 15:50:32 15:55:01 87° 75° (ENE) 15:59:34 437.375
PCSat 18 Apr 15:55:28 15:56:59 11° 8° (N) 15:58:34 145.827
KKS-1 18 Apr 16:06:02 16:10:31 68° 103° (ESE) 16:15:00 437.445
ITUPSAT 1 18 Apr 16:39:18 16:42:32 18° 301° (WNW) 16:45:38 437.325
JAS-2 18 Apr 16:53:53 17:01:37 61° 261° (W) 17:09:20 435.910
SO-50 18 Apr 16:57:00 17:00:26 19° 336° (NNW) 17:03:52 436.795
ISS 18 Apr 17:04:41 17:07:57 79° 338° (NNW) 17:11:14 145.825
MOZHAYETS 4 18 Apr 17:11:30 17:15:21 26° 92° (E) 17:19:14
Cosmos 2504 18 Apr 17:13:26 17:20:32 25° 304° (WNW) 17:27:20 435.465 / 435.565
STARS 18 Apr 17:20:33 17:24:38 36° 293° (WNW) 17:28:41 437.465
CUTE-I 18 Apr 17:27:29 17:31:57 29° 62° (ENE) 17:36:29 437.470
AO-7 18 Apr 17:28:44 17:36:14 35° 265° (W) 17:43:37 29.400- 29.500
HORYU 2 18 Apr 17:30:44 17:32:25 12° 275° (W) 17:33:53 437.375
Cubesat XI-IV 18 Apr 17:34:23 17:39:03 32° 64° (ENE) 17:43:47 437.490
GONETS M04 18 Apr 17:38:15 17:46:44 58° 91° (E) 17:55:20
PCSat 18 Apr 17:38:17 17:42:31 23° 33° (NNE) 17:46:49 145.827
RS-15 18 Apr 17:43:12 17:54:07 73° 314° (NW) 18:05:24 29.354- 29.394
KKS-1 18 Apr 17:43:47 17:46:43 17° 300° (WNW) 17:49:31 437.445
Cosmos 2499 18 Apr 18:13:17 18:18:50 20° 76° (ENE) 18:24:45 435.465 / 435.565
DANDE 18 Apr 18:15:50 18:17:39 15° 85° (E) 18:19:48 436.750
HO-68 18 Apr 18:17:37 18:20:09 12° 40° (NE) 18:22:59 435.675
CUBESAT XI-V 18 Apr 18:26:36 18:28:47 14° 86° (E) 18:31:11 437.345
CUSAT 1 18 Apr 18:27:07 18:29:58 31° 91° (E) 18:33:35 437.405
M-CUBED/EXP-1 PRIME 18 Apr 18:28:53 18:31:43 17° 93° (E) 18:34:34 437.505
SO-50 18 Apr 18:40:55 18:42:52 12° 0° (N) 18:44:50 436.795
ISS 18 Apr 18:41:23 18:44:34 46° 0° (N) 18:47:44 145.825
JAS-2 18 Apr 18:44:32 18:48:23 13° 282° (WNW) 18:51:41 435.910
MOZHAYETS 4 18 Apr 18:48:24 18:52:45 40° 291° (WNW) 18:57:02
CUTE-I 18 Apr 19:06:39 19:11:50 49° 261° (W) 19:17:01 437.470
PRISM 18 Apr 19:10:49 19:13:57 21° 92° (E) 19:17:08 437.425
Cubesat XI-IV 18 Apr 19:14:00 19:19:04 43° 262° (W) 19:24:08 437.490
GOMX 1 18 Apr 19:15:27 19:16:16 11° 56° (NE) 19:17:17 467.674
AUBIESAT-1 18 Apr 19:17:49 19:22:07 43° 103° (ESE) 19:26:06 437.475
CANX-2 18 Apr 19:20:30 19:21:20 11° 57° (ENE) 19:22:21 2200.000
PCSat 18 Apr 19:21:17 19:26:45 86° 55° (NE) 19:32:12 145.827
CUTE 1.7 + AOD 2 18 Apr 19:30:03 19:31:38 12° 58° (ENE) 19:33:24 437.475
GONETS M04 18 Apr 19:35:58 19:44:04 39° 295° (WNW) 19:52:08
DANDE 18 Apr 19:57:48 20:00:32 28° 294° (WNW) 20:03:53 436.750
RS-15 18 Apr 19:58:38 20:08:42 38° 345° (NNW) 20:19:06 29.354- 29.394
HO-68 18 Apr 19:59:33 20:06:14 45° 62° (ENE) 20:13:01 435.675
AAUSAT CUBESAT 2 18 Apr 20:00:22 20:02:35 14° 60° (ENE) 20:04:56 437.432
Cosmos 2499 18 Apr 20:01:57 20:10:49 79° 97° (E) 20:19:35 435.465 / 435.565
CUBESAT XI-V 18 Apr 20:02:16 20:06:54 78° 284° (WNW) 20:11:29 437.345
M-CUBED/EXP-1 PRIME 18 Apr 20:02:34 20:07:09 63° 293° (WNW) 20:11:20 437.505
CUSAT 1 18 Apr 20:10:31 20:13:02 18° 301° (WNW) 20:15:56 437.405
STRAND 1 18 Apr 20:12:43 20:17:47 64° 102° (ESE) 20:22:51 437.568
ISS 18 Apr 20:17:54 20:21:11 81° 20° (NNE) 20:24:26 145.825
SO-50 18 Apr 20:21:47 20:25:17 19° 24° (NNE) 20:28:53 436.795
BRITE-PL 18 Apr 20:21:48 20:25:54 65° 74° (ENE) 20:30:04 437.365/2234.400
DOVE 4 18 Apr 20:26:46 20:30:31 33° 67° (ENE) 20:34:27 437.250
DELFI C3 18 Apr 20:28:39 20:29:07 10° 58° (ENE) 20:29:47 145.870
CINEMA 3 18 Apr 20:32:37 20:35:53 22° 63° (ENE) 20:39:21 145.822/145.860
UWE-3 18 Apr 20:33:19 20:34:43 12° 57° (ENE) 20:36:18 435.000/436.395/437.385
COMPASS 1 18 Apr 20:44:29 20:48:27 40° 70° (ENE) 20:52:28 437.405
PRISM 18 Apr 20:45:44 20:49:38 41° 291° (WNW) 20:53:28 437.425
GOMX 1 18 Apr 20:49:34 20:53:43 81° 75° (ENE) 20:58:00 467.674
CANX-2 18 Apr 20:52:16 20:56:33 75° 76° (ENE) 21:00:53 2200.000
AUBIESAT-1 18 Apr 20:52:54 20:56:42 26° 303° (WNW) 21:00:13 437.475
SEEDS 18 Apr 20:57:16 21:01:29 65° 74° (ENE) 21:05:46 437.485
FUNcube-1 18 Apr 21:02:32 21:05:17 17° 61° (ENE) 21:08:12 145.935
CUTE 1.7 + AOD 2 18 Apr 21:02:38 21:06:56 87° 73° (ENE) 21:11:17 437.475
PCSat 18 Apr 21:06:04 21:09:32 17° 254° (WSW) 21:12:47 145.827
VERMONT LUNAR 18 Apr 21:09:54 21:11:50 15° 163° (SSE) 21:13:48 437.305
UKube-1 18 Apr 21:20:54 21:23:46 18° 61° (ENE) 21:26:47 .
ZACube-1 18 Apr 21:23:41 21:27:15 26° 65° (ENE) 21:30:58 437.345
CUBEBUG 2 18 Apr 21:23:50 21:27:47 37° 68° (ENE) 21:31:55 437.445
YUBILEINY 18 Apr 21:26:21 21:33:00 24° 56° (NE) 21:39:53 435.215
AAUSAT CUBESAT 2 18 Apr 21:33:29 21:37:42 75° 258° (WSW) 21:41:58 437.432
M-CUBED/EXP-1 PRIME 18 Apr 21:39:33 21:41:06 11° 313° (NW) 21:42:27 437.505
Oscar 11 18 Apr 21:40:50 21:45:08 66° 74° (ENE) 21:49:31 145.826/435.025
CUBESAT XI-V 18 Apr 21:41:50 21:43:38 12° 303° (WNW) 21:45:15 437.345
50 SAT 18 Apr 21:46:11 21:48:23 15° 61° (ENE) 21:50:45 437.505
HO-68 18 Apr 21:47:11 21:54:01 45° 262° (W) 22:00:52 435.675
STRAND 1 18 Apr 21:52:44 21:56:36 22° 300° (WNW) 22:00:21 437.568
ISS 18 Apr 21:54:38 21:57:18 23° 218° (SW) 21:59:55 145.825
Cosmos 2499 18 Apr 21:57:22 22:05:00 30° 299° (WNW) 22:12:18 435.465 / 435.565
PHONESAT 2.4 18 Apr 21:58:56 22:00:58 15° 162° (SSE) 22:03:04 2401.200-2431.200
DELFI C3 18 Apr 21:59:31 22:03:36 79° 75° (ENE) 22:07:44 145.870
DX 1 18 Apr 22:01:15 22:05:20 43° 69° (ENE) 22:09:29 434.975-435.025
SO-50 18 Apr 22:01:52 22:06:48 62° 46° (NE) 22:11:43 436.795
BRITE-PL 18 Apr 22:02:57 22:05:03 13° 273° (W) 22:06:58 437.365/2234.400
DOVE 4 18 Apr 22:04:50 22:08:25 26° 267° (W) 22:12:03 437.250
UWE-3 18 Apr 22:06:15 22:10:32 81° 74° (ENE) 22:14:59 435.000/436.395/437.385
CINEMA 3 18 Apr 22:08:46 22:12:51 45° 262° (W) 22:17:06 145.822/145.860
RS-15 18 Apr 22:14:23 22:24:42 39° 18° (NNE) 22:35:31 29.354- 29.394
COMPASS 1 18 Apr 22:20:54 22:24:19 23° 268° (W) 22:27:41 437.405
HUMSAT D 18 Apr 22:21:37 22:25:40 49° 71° (ENE) 22:29:48 437.325/437.525
CANX-2 18 Apr 22:31:03 22:33:06 13° 274° (W) 22:34:58 2200.000
GOMX 1 18 Apr 22:31:36 22:32:39 11° 276° (W) 22:33:30 467.674
SEEDS 18 Apr 22:35:20 22:37:48 15° 273° (W) 22:40:07 437.485
FUNcube-1 18 Apr 22:36:56 22:41:11 63° 259° (W) 22:45:33 145.935
VELOX 1 18 Apr 22:37:17 22:41:29 46° 70° (ENE) 22:45:44 145.980
CUTE 1.7 + AOD 2 18 Apr 22:42:18 22:43:35 11° 275° (W) 22:44:37 437.475
ANTELSAT 18 Apr 22:44:02 22:46:59 17° 88° (E) 22:50:05 437.575/2403.000
VERMONT LUNAR 18 Apr 22:46:05 22:48:44 21° 180° (S) 22:51:22 437.305
AISAT 18 Apr 22:51:46 22:56:08 66° 73° (ENE) 23:00:31 437.250
UKube-1 18 Apr 22:55:17 22:59:33 59° 259° (WSW) 23:03:51 .
ZACube-1 18 Apr 22:59:30 23:03:29 37° 264° (W) 23:07:34 437.345
CUBEBUG 2 18 Apr 23:01:02 23:04:38 25° 268° (W) 23:08:18 437.445
ESTCUBE 1 18 Apr 23:03:36 23:07:56 48° 70° (ENE) 23:12:18 437.505/2401.250
CUBEBUG 1 18 Apr 23:05:40 23:09:46 43° 70° (ENE) 23:13:54 437.445
QB50P2 18 Apr 23:13:46 23:16:14 15° 88° (E) 23:18:49 145.880/145.840
Cosmos 2491 18 Apr 23:14:00 23:21:41 38° 85° (E) 23:29:33 435.465 / 435.565
Cosmos 2504 18 Apr 23:14:52 23:17:22 12° 41° (NE) 23:20:17 435.465 / 435.565
50 SAT 18 Apr 23:18:50 23:22:48 64° 259° (WSW) 23:26:49 437.505
Oscar 11 18 Apr 23:19:17 23:21:51 15° 273° (W) 23:24:16 145.826/435.025
TISAT 1 18 Apr 23:21:25 23:24:00 17° 61° (ENE) 23:26:43 437.305
SPROUT 18 Apr 23:21:45 23:24:49 20° 63° (ENE) 23:28:00 437.525
YUBILEINY 18 Apr 23:22:29 23:31:21 88° 82° (E) 23:40:06 435.215
PHONESAT 2.4 18 Apr 23:35:43 23:38:34 23° 178° (S) 23:41:26 2401.200-2431.200
POPSAT HIP 1 18 Apr 23:36:18 23:39:47 24° 93° (E) 23:43:21 437.405
NANOSAT C BR1 18 Apr 23:36:43 23:40:11 24° 93° (E) 23:43:45 145.865
TIGRISAT 18 Apr 23:37:10 23:41:45 49° 98° (E) 23:46:20 435.000
UNISAT 6 18 Apr 23:37:51 23:42:28 51° 99° (E) 23:47:04 437.425
DELFI C3 18 Apr 23:38:01 23:39:23 11° 274° (W) 23:40:33 145.870
DX 1 18 Apr 23:38:23 23:41:49 22° 268° (W) 23:45:11 434.975-435.025
SO-50 18 Apr 23:43:03 23:47:02 24° 245° (WSW) 23:50:54 436.795
UWE-3 18 Apr 23:46:03 23:47:49 12° 275° (W) 23:49:22 435.000/436.395/437.385
HUMSAT D 18 Apr 23:58:43 00:01:45 19° 270° (W) 00:04:43 437.325/437.525
O/OREOS (USA 219) 19 Apr 00:01:22 00:05:30 34° 107° (ESE) 00:09:40 437.305
POLYITAN 1 19 Apr 00:01:58 00:06:06 44° 98° (E) 00:10:15 437.675
DUCHIFAT 1 19 Apr 00:12:40 00:16:52 54° 101° (E) 00:21:03 145.980
VELOX 1 19 Apr 00:14:55 00:18:19 21° 268° (W) 00:21:39 145.980
ANTELSAT 19 Apr 00:19:35 00:24:18 68° 287° (WNW) 00:28:59 437.575/2403.000
VERMONT LUNAR 19 Apr 00:23:36 00:25:37 15° 196° (SSW) 00:27:37 437.305
QB50P1 19 Apr 00:25:02 00:29:20 75° 103° (ESE) 00:33:37 145.935-145.965
RS-15 19 Apr 00:27:41 00:39:09 78° 48° (NE) 00:51:10 29.354- 29.394
AISAT 19 Apr 00:30:38 00:33:15 15° 272° (W) 00:35:44 437.250
ITUPSAT 1 19 Apr 00:34:53 00:38:11 19° 60° (ENE) 00:41:37 437.325
ESTCUBE 1 19 Apr 00:41:34 00:45:06 21° 269° (W) 00:48:32 437.505/2401.250
BUGSAT 1 19 Apr 00:42:15 00:46:22 81° 101° (ESE) 00:50:31 437.445
CUBEBUG 1 19 Apr 00:42:57 00:46:22 22° 268° (W) 00:49:42 437.445
QB50P2 19 Apr 00:48:21 00:52:36 63° 287° (WNW) 00:56:51 145.880/145.840
TISAT 1 19 Apr 00:55:15 00:59:23 61° 259° (WSW) 01:03:34 437.305
SPROUT 19 Apr 00:56:27 01:00:37 50° 261° (W) 01:04:49 437.525
Cosmos 2504 19 Apr 01:05:44 01:13:45 46° 69° (ENE) 01:21:15 435.465 / 435.565
BEESAT 19 Apr 01:09:26 01:13:47 37° 67° (ENE) 01:18:12 436.000
Cosmos 2491 19 Apr 01:09:42 01:18:16 57° 287° (WNW) 01:26:54 435.465 / 435.565
SWISSCUBE 19 Apr 01:10:31 01:14:58 40° 67° (ENE) 01:19:27 437.505
POPSAT HIP 1 19 Apr 01:11:49 01:15:49 38° 291° (WNW) 01:19:47 437.405
NANOSAT C BR1 19 Apr 01:12:12 01:16:10 38° 291° (WNW) 01:20:07 145.865
PHONESAT 2.4 19 Apr 01:13:47 01:16:12 17° 195° (SSW) 01:18:36 2401.200-2431.200
TIGRISAT 19 Apr 01:14:26 01:18:15 24° 297° (WNW) 01:21:59 435.000
UNISAT 6 19 Apr 01:15:12 01:18:58 23° 297° (WNW) 01:22:39 437.425
YUBILEINY 19 Apr 01:20:38 01:27:09 23° 282° (WNW) 01:33:18 435.215
KKS-1 19 Apr 01:33:55 01:36:09 14° 58° (ENE) 01:38:32 437.445
POLYITAN 1 19 Apr 01:38:25 01:41:48 22° 296° (WNW) 01:45:07 437.675
O/OREOS (USA 219) 19 Apr 01:40:45 01:44:56 33° 306° (NW) 01:49:06 437.305
Oscar 19 19 Apr 01:49:12 01:53:16 23° 91° (E) 01:57:25 437.125/150
DUCHIFAT 1 19 Apr 01:49:19 01:52:21 19° 298° (WNW) 01:55:17 145.980
ANTELSAT 19 Apr 01:58:49 02:00:17 11° 305° (NW) 02:01:33 437.575/2403.000
QB50P1 19 Apr 02:02:18 02:04:43 15° 300° (WNW) 02:06:59 145.935-145.965
ITAMSAT 1 19 Apr 02:09:08 02:10:14 11° 83° (E) 02:11:40 435.822/435.867
ITUPSAT 1 19 Apr 02:10:52 02:15:40 67° 258° (WSW) 02:20:28 437.325
AIST 1 19 Apr 02:11:43 02:16:02 74° 98° (E) 02:20:21
BUGSAT 1 19 Apr 02:19:25 02:21:21 13° 301° (WNW) 02:23:07 437.445
RS-15 19 Apr 02:40:39 02:50:53 38° 251° (WSW) 03:01:16 29.354- 29.394
STARS 19 Apr 02:44:47 02:48:51 39° 68° (ENE) 02:52:58 437.465
BEESAT 19 Apr 02:47:26 02:51:42 31° 265° (W) 02:55:57 436.000
SWISSCUBE 19 Apr 02:48:47 02:52:57 28° 266° (W) 02:57:05 437.505
Cosmos 2504 19 Apr 02:59:23 03:07:14 45° 272° (W) 03:14:28 435.465 / 435.565
KKS-1 19 Apr 03:07:47 03:12:13 84° 253° (WSW) 03:16:42 437.445
